THORAD AGENA D DEB

Satellite information

Favourite Embed

Satellite Type and Status

DEBRISIN ORBIT

Key statistics

Satellite THORAD AGENA D DEB at a glance.

Uptime

20528

Days in orbit

Revolutions

≈ 14.3

Per day

Orbit

LEO

Low Earth Orbit

Inclination

70.1

Latest

Satellite identification and parameters

Extended collection of information and parameters for THORAD AGENA D DEB.

Object identification

Identified? True

Debris? True

Object name: THORAD AGENA D DEB

International designator: 1969-082AG

Object number (NORAD): 4164

Object ID (CCSDS): 4164

Country: UNITED STATES OF AMERICA (US)

Current information (Y/N): Y

RCS size: SMALL

Orbital parameters

Period: 100.429 minutes

Inclination: 70.0772 deg

SMA: 7157.046 km

Apoapsis: 803.616 km

Periapsis: 754.205 km

RAAN: 205.1176 deg

Eccentricy: 0.00345197

Argument of periapsis: 14.1698 deg

Mean anomaly: 346.0388 deg

Mean motion: 14.33844599 rev/day

Mean motion (dot): 0.00002879 rev/day2

B* drag term: 0.0010469183 1/REarth

Two-line elements (TLE)

Creation date: Dec. 12, 2025, 10:14 a.m.

Reference frame: TEME

Reference center: EARTH

Epoch: Dec. 12, 2025, 12:28 a.m. UTC

TLE line 0: 0 THORAD AGENA D DEB

TLE line 1: 1 04164U 69082AG 25346.01957116 .00002879 00000-0 10469-2 0 9998

TLE line 2: 2 04164 70.0772 205.1176 0034520 14.1698 346.0388 14.33844599884210

Live tracking on map

Real-time ground track for satellite THORAD AGENA D DEB.

In-orbit conjunctions

A list of the most updated potential collisions computed for object THORAD AGENA D DEB.

Target Orbit TCA Probability of collision Miss distance Type
COSMOS 1867 COOLANT LEO 2025-10-25 04:35:47 0.000365222 84.0 (m) DEBRIS
COSMOS 836 LEO 2025-04-22 16:09:59 0.0003694949 655.0 (m) PAYLOAD

Associated space launch

Poppy was the follow-on ELINT system, which succeeded the Grab ELINT satellite system.

THORAD AGENA D DEB was lifted into orbit during the mission ‘Thorad SLV-2G Agena D | Poppy 8A,B,C,D’, on board a Thorad SLV-2G Agena D space rocket.

The launch took place on Sept. 30, 1969, 1:40 p.m. from Space Launch Complex 1W.

For more information about the launch, click the button.

Launch to space Thorad SLV-2G Agena D | Poppy 8A,B,C,D
Thorad SLV-2G Agena D | Poppy 8A,B,C,D

Agency: N/A

Status: Launch Successful

Launch date: Sept. 30, 1969, 1:40 p.m. UTC

Rocket: Thorad SLV-2G Agena D

Launch pad: Space Launch Complex 1W

Location: Vandenberg SFB, CA, USA

...

Latest news about this satellite

There are no fresh news available about this satellite. Check back as we update our databases every day.


Newsletter sign-up

Weekly statistics, charts and insights to help you stay on top of the space industry.